Regional Weather Roundup
Issued by NWS

Home | Current Version | Previous Version | Graphics & Text | Print | Product List | Glossary On
Versions: 1 2 3 4 5 6 7 8 9 10 11 12 13 14 15 16 17 18 19 20 21 22 23 24 25 26 27 28 29 30 31 32 33 34 35 36 37 38 39 40 41 42 43 44 45 46 47 48 49 50
000
ASUS43 KLOT 210410
RWRIL

ILLINOIS REGIONAL WEATHER ROUNDUP
NATIONAL WEATHER SERVICE CHICAGO/ROMEOVILLE IL
1100 PM CDT MON OCT 20 2014

NOTE: "FAIR" INDICATES FEW OR NO CLOUDS BELOW 12,000 FEET WITH NO
SIGNIFICANT WEATHER AND/OR OBSTRUCTIONS TO VISIBILITY.

* THESE STATIONS ARE NOT UNDER NWS QUALITY CONTROL. THEY ALSO MAY NOT
  REPORT WEATHER SUCH AS PRECIPITATION OR FOG.

ILZ001-002-007-009-015-016-024-210500-
NORTHWEST ILLINOIS

CITY           SKY/WX    TMP DP  RH WIND       PRES   REMARKS
MOLINE         CLEAR     46  41  82 SE3       30.03R
STERLING*      PTCLDY    43  36  75 CALM      30.03R
SAVANNA*       CLEAR     47  40  78 CALM      30.03S
$$

ILZ003-004-008-010-011-017-018-210500-
NORTH CENTRAL ILLINOIS

CITY           SKY/WX    TMP DP  RH WIND       PRES   REMARKS
ROCKFORD       MOCLDY    49  40  71 N6        30.04S
FREEPORT*      CLOUDY    45  41  86 CALM      30.05R
ROCHELLE*      CLOUDY    44  40  85 CALM      30.03R
DE KALB*       CLOUDY    49  40  71 N3        30.02R
PERU*          PTCLDY    49  41  75 N5        30.02S
$$

ILZ005-006-012>014-019>023-210500-
NORTHEAST ILLINOIS

CITY           SKY/WX    TMP DP  RH WIND       PRES   REMARKS
CHICAGO-OHARE  MOCLDY    52  41  66 N9        30.00R
CHICAGO-MIDWAY MOCLDY    55  43  63 N12       29.99S
AURORA         CLOUDY    52  40  63 N6        30.01S
LANSING*       CLOUDY    52  44  73 N5        29.99S
JOLIET*        CLOUDY    53  41  64 N6        30.00S
WAUKEGAN       MOCLDY    49  42  77 NW3       30.00R
DUPAGE AIRPORT CLOUDY    52  41  66 N9        30.00S
KANKAKEE*      CLOUDY    52  49  88 CALM      30.01R
WHEELING       CLOUDY    54  42  64 N7        30.01S
MORRIS*        CLOUDY    52  44  75 CALM      30.00R
ROMEOVILLE*    CLOUDY    53  41  63 N6        30.00S
NORTHERLY ISL    N/A     54  42  64 MISG        N/A
$$

LMZ740>746-210500-
SOUTHERN LAKE MICHIGAN

STATION/POSITION SKY/WX   TEMP    WIND        PRES    VSBY  WAVE
                          AIR SEA DIR/SP/G                  HT/PER
                          (F)     (DEG/KT/KT) (MB)    (MI)  (FT/S)
SOUTHERN BUOY              52 54  340/ 17/ 19 1015.3R         3/ 5
WAUKEGAN HARBOR            52     360/  9/ 12   N/A
HARRISON CRIB              54     340/ 18/ 20   N/A
BURNHAM HARBOR             54     320/ 11/ 16   N/A
CALUMET HARBOR             54     330/  7/ 13 1014.5R
MICHIGAN CITY              52     340/ 20/ 22   N/A
$$

ILZ025>027-034>036-040-047-049-050-058-095>099-210500-
WEST-CENTRAL ILLINOIS

CITY           SKY/WX    TMP DP  RH WIND       PRES   REMARKS
QUINCY         CLEAR     55  43  63 W5        30.02S
GALESBURG*     CLEAR     45  41  86 CALM      30.02R
MACOMB*        CLEAR     45  42  88 NW7       30.03S
JACKSONVILLE*  CLEAR     50  44  82 W3        30.01S
PITTSFIELD*    CLEAR     52  45  76 W5        30.03S
$$

ILZ028>032-037-038-041>044-048-051>054-059>061-210500-
CENTRAL ILLINOIS

CITY           SKY/WX    TMP DP  RH WIND       PRES   REMARKS
PONTIAC        CLEAR     48  45  87 CALM      30.01R
BLOOMINGTON    CLEAR     50  44  79 NE8       30.02R
DECATUR        CLEAR     52  44  74 W5        30.01R
PEORIA         CLEAR     53  44  71 NE8       30.02R
LACON*         CLEAR     46  39  76 CALM      30.02R
LINCOLN*       CLEAR     50  44  81 CALM      29.99S
SPRINGFIELD    CLEAR     48  42  80 SW3       30.01R
TAYLORVILLE    CLEAR     48  43  81 W5        30.00S
$$

ILZ033-039-045-046-055>057-062-063-210500-
EAST-CENTRAL ILLINOIS

CITY           SKY/WX    TMP DP  RH WIND       PRES   REMARKS
CHAMPAIGN      MOCLDY    54  46  74 NE8       30.00R
DANVILLE*      CLOUDY    51  47  88 N3        29.98R
RANTOUL*       MOCLDY    54  47  75 NE6       30.01R
MATTOON        CLOUDY    54  43  66 W6        29.99R
PARIS*         MOCLDY    52  46  79 NE3       30.00R
$$

ILZ079-100>102-210500-
SOUTHWEST ILLINOIS

CITY           SKY/WX    TMP DP  RH WIND       PRES   REMARKS
ALTON          CLEAR     52  44  74 CALM      30.03S
BELLEVILLE     CLEAR     51  45  79 W2        30.02S
CAHOKIA*       CLEAR     50  45  83 CALM      30.03S
SPARTA*        CLEAR     53  44  73 CALM      30.04S
$$

ILZ064>066-069>071-074>076-080>082-084>086-088>090-092>094-210500-
SOUTH-CENTRAL ILLINOIS

CITY           SKY/WX    TMP DP  RH WIND       PRES   REMARKS
CARBONDALE     CLEAR     53  44  71 NW3       30.03R
CAIRO*         FOG       53  49  87 CALM      30.03R VSB 1
EFFINGHAM*     CLEAR     48  42  79 CALM      30.00S
MARION         CLEAR     50  45  81 N3        30.03R
MT. VERNON     CLEAR     46  41  81 CALM      30.02S
CENTRALIA*     CLEAR     49  44  81 CALM      30.02S
SALEM*         CLEAR     53  48  83 CALM      30.02S
METROPOLIS*    CLEAR     54  54 100 CALM      30.01S
$$

ILZ067-068-072-073-078-083-087-091-210500-
SOUTHEAST ILLINOIS

CITY           SKY/WX    TMP DP  RH WIND       PRES   REMARKS
LAWRENCEVILLE  CLEAR     51  44  77 NW6       29.99R
FLORA*         CLEAR     53  44  69 W6        30.01S
FAIRFIELD*     CLEAR     55  45  67 CALM      30.00S
HARRISBURG*    CLEAR     56  44  63 NW3       30.03R
ROBINSON*      CLEAR     52  46  78 W7        30.00R
CARMI*         CLEAR     54  46  75 W6        30.00S
$$

ABBREVIATIONS USED IN REMARKS
   TC - TEMPERATURE IN CELSIUS
  WCI - WIND CHILL INDEX
   HX - HEAT INDEX
  VSB - VISIBILITY
$$



USA.gov is the U.S. government's official web portal to all federal, state and local government web resources and services.